Hideaway Lake (907, 908, 1021, 1022) Station Data

Red Flag Warning: No
Fire Weather Zone: 250
SDGE Region: North East
Lat/Lon: 33.24/-117.045

Observations

Time Wind Speed/Gust Temp(F) RH Fuel Moist Fuel Temp(F) Dewpt(F) Tmax(F) Tmin(F) Accum Precip 10-min Precip SL Press(mb)
6/27 4:50pm 221 6 G 10 89° 14% - - 34° 95.9° 70° - - -
6/27 4:40pm 204 5 G 12 90° 14% - - 34° 95.9° 70° - - -
6/27 4:30pm 213 5 G 12 91° 14% - - 34° 95.9° 70° - - -
6/27 4:20pm 230 6 G 9 91° 13% - - 33° 95.9° 70° - - -
6/27 4:10pm 226 6 G 11 92° 12% - - 32° 95.9° 70° - - -
6/27 4:00pm 221 5 G 11 92° 12% - - 33° 95.9° 70° - - -
6/27 3:50pm 249 5 G 9 92° 11% - - 30° 95.9° 70° - - -
6/27 3:40pm 237 5 G 12 92° 11% - - 30° 95.9° 70° - - -
6/27 3:30pm 224 6 G 11 92° 11% - - 30° 95.9° 70° - - -
6/27 3:20pm 225 6 G 11 92° 10% - - 28° 95.9° 70° - - -
6/27 3:10pm 238 6 G 13 93° 11% - - 30° 95.9° 70° - - -
6/27 3:00pm 253 6 G 11 92° 12% - - 32° 95.9° 70° - - -
6/27 2:50pm 231 8 G 14 91° 13% - - 33° 95.9° 70° - - -
6/27 2:40pm 240 8 G 14 92° 13% - - 34° 95.9° 70° - - -
6/27 2:30pm 248 7 G 15 92° 14% - - 36° 95.9° 70° - - -
6/27 2:20pm 240 9 G 14 93° 14% - - 37° 95.9° 70° - - -
6/27 2:10pm 240 8 G 13 93° 13% - - 35° 95.9° 70° - - -
6/27 2:00pm 237 8 G 14 93° 12% - - 34° 95.9° 70° - - -
6/27 1:50pm 234 8 G 15 94° 10% - - 29° 95.9° 70° - - -
6/27 1:40pm 266 7 G 13 94° 9% - - 27° 95.9° 70° - - -
6/27 1:30pm 273 7 G 12 94° 10% - - 29° 95.8° 70° - - -
6/27 1:20pm 269 7 G 14 94° 11% - - 32° 95.8° 70° - - -
6/27 1:10pm 273 5 G 10 94° 12% - - 35° 95.8° 70° - - -
6/27 1:00pm 259 8 G 14 94° 12% - - 34° 95.6° 70° - - -
6/27 12:50pm 280 7 G 12 94° 11% - - 32° 95.6° 70° - - -
6/27 12:40pm 276 6 G 12 94° 11% - - 31° 95.6° 70° - - -
6/27 12:30pm 283 8 G 12 94° 9% - - 26° 95.6° 70° - - -
6/27 12:20pm 290 7 G 12 95° 9% - - 28° 95.6° 70° - - -
6/27 12:10pm 299 6 G 11 95° 8% - - 23° 95.4° 70° - - -
6/27 12:00pm 296 7 G 13 94° 9% - - 27° 95.4° 70° - - -
6/27 11:50am 286 6 G 10 94° 9% - - 28° 95.4° 70° - - -
6/27 11:40am 291 6 G 14 93° 9% - - 27° 94.3° 70° - - -
6/27 11:30am 273 6 G 14 94° 10% - - 28° 94.3° 70° - - -
6/27 11:20am 273 5 G 10 93° 10% - - 28° 93.9° 70° - - -
6/27 11:10am 261 5 G 10 93° 9% - - 26° 93.8° 70° - - -
6/27 11:00am 286 4 G 11 92° 10% - - 26° 92.4° 70° - - -
6/27 10:50am 330 5 G 10 92° 10% - - 27° 92.3° 70° - - -
6/27 10:40am 313 4 G 8 91° 11% - - 30° 91.7° 70° - - -
6/27 10:30am 294 4 G 7 91° 11% - - 30° 91.7° 70° - - -
6/27 10:20am 307 3 G 7 90° 12% - - 30° 91.7° 70° - - -
6/27 10:10am 330 4 G 7 89° 12% - - 30° 90.3° 70° - - -
6/27 10:00am 341 4 G 8 89° 12% - - 29° 90.3° 70° - - -
6/27 9:50am 298 3 G 7 90° 11% - - 27° 90.3° 70° - - -
6/27 9:40am 284 3 G 7 89° 10% - - 26° 90° 70° - - -
6/27 9:30am 260 3 G 5 89° 10% - - 26° 90° 70° - - -
6/27 9:20am 212 1 G 3 89° 9% - - 24° 90° 70° - - -
6/27 9:10am 122 2 G 5 88° 10% - - 25° 89.1° 70° - - -
6/27 9:00am 311 1 G 3 88° 11% - - 27° 89.1° 70° - - -
6/27 8:50am 247 1 G 3 88° 11% - - 26° 89.1° 70° - - -
6/27 8:40am 225 1 G 3 87° 10% - - 23° 87.7° 70° - - -
6/27 8:30am 202 1 G 3 87° 10% - - 24° 87.3° 70° - - -
6/27 8:20am 119 1 G 3 86° 12% - - 26° 86.2° 70° - - -
6/27 8:10am 139 1 G 2 84° 13% - - 27° 84.6° 70° - - -
6/27 8:00am 124 1 G 4 82° 15% - - 29° 82.9° 70° - - -
6/27 7:50am 126 2 G 4 80° 17% - - 31° 80.9° 70° - - -
6/27 7:40am 123 2 G 3 79° 17% - - 31° 80.2° 70° - - -
6/27 7:30am 144 2 G 3 78° 17% - - 30° 78.3° 70° - - -
6/27 7:20am 138 1 G 2 78° 16% - - 28° 78° 70° - - -
6/27 7:10am 127 1 G 2 76° 17% - - 28° 77.5° 70° - - -
6/27 7:00am 133 1 G 3 76° 16% - - 26° 77.5° 70° - - -
6/27 6:50am 146 1 G 3 74° 18% - - 28° 77.5° 70° - - -
6/27 6:40am 155 1 G 2 74° 18% - - 28° 77.5° 70° - - -
6/27 6:30am 133 1 G 2 73° 18% - - 27° 77.5° 70° - - -
6/27 6:20am 165 0 G 1 72° 17% - - 25° 77.5° 70° - - -
6/27 6:10am 148 1 G 3 71° 17% - - 25° 77.5° 70° - - -
6/27 6:00am 146 1 G 2 70° 19% - - 26° 77.5° 70° - - -
6/27 5:50am 156 1 G 3 71° 18% - - 26° 77.5° 70.3° - - -
6/27 5:40am 155 1 G 3 71° 18% - - 26° 77.5° 70.3° - - -
6/27 5:30am 150 0 G 2 71° 19% - - 26° 77.5° 70.3° - - -
6/27 5:20am 140 1 G 3 71° 19% - - 27° 77.5° 70.3° - - -
6/27 5:10am 139 1 G 3 71° 19% - - 27° 77.5° 70.3° - - -
6/27 5:00am 180 0 G 2 71° 20% - - 27° 77.5° 70.3° - - -
6/27 4:50am 130 1 G 2 71° 20% - - 28° 77.5° 70.3° - - -
6/27 4:40am 139 1 G 2 71° 20% - - 28° 77.5° 70.3° - - -
6/27 4:30am 162 1 G 2 71° 20% - - 28° 77.5° 70.3° - - -
6/27 4:20am 151 0 G 1 72° 20% - - 28° 77.5° 71° - - -
6/27 4:10am 142 0 G 0 72° 19% - - 28° 77.5° 72° - - -
6/27 4:00am 149 1 G 3 74° 18% - - 28° 77.5° 72.2° - - -
6/27 3:50am 122 1 G 3 74° 18% - - 28° 77.5° 72.2° - - -
6/27 3:40am 156 1 G 4 74° 18% - - 28° 77.5° 72.2° - - -
6/27 3:30am 130 1 G 4 74° 19% - - 28° 77.5° 72.2° - - -
6/27 3:20am 151 1 G 2 74° 19% - - 29° 77.5° 72.2° - - -
6/27 3:10am 149 2 G 3 74° 19% - - 29° 77.5° 72.2° - - -
6/27 3:00am 147 2 G 4 74° 20% - - 30° 77.5° 72.2° - - -
6/27 2:50am 143 2 G 3 74° 20% - - 30° 77.5° 72.2° - - -
6/27 2:40am 140 2 G 4 73° 21% - - 31° 77.5° 72.2° - - -
6/27 2:30am 150 2 G 4 73° 22% - - 32° 77.5° 72.2° - - -
6/27 2:20am 147 2 G 4 73° 22% - - 32° 77.5° 72.7° - - -
6/27 2:10am 129 1 G 3 74° 22% - - 32° 77.5° 72.9° - - -
6/27 2:00am 155 1 G 3 74° 23% - - 34° 77.5° 72.9° - - -
6/27 1:50am 104 2 G 4 75° 22% - - 33° 77.5° 73.9° - - -
6/27 1:40am 156 1 G 4 75° 21% - - 32° 77.5° 74.7° - - -
6/27 1:30am 126 1 G 3 77° 19% - - 32° 77.5° 74.7° - - -
6/27 1:20am 134 1 G 2 76° 21% - - 33° 76.8° 74.7° - - -
6/27 1:10am 123 1 G 2 75° 22% - - 34° 76.8° 74.7° - - -
6/27 1:00am 140 2 G 4 76° 22% - - 34° 76.8° 74.7° - - -
6/27 12:50am 124 2 G 5 76° 22% - - 34° 76.8° 74.7° - - -
6/27 12:40am 132 2 G 5 76° 23% - - 35° 76.8° 75.2° - - -
6/27 12:30am 103 2 G 4 76° 23% - - 35° 76.8° 75.6° - - -
6/27 12:20am 139 2 G 4 76° 23% - - 36° 76.6° 75.6° - - -
6/27 12:10am 162 2 G 4 76° 23% - - 36° 76.6° 75.9° - - -
6/27 12:00am 119 2 G 4 76° 24% - - 36° 100.9° 72.9° - - -
6/26 11:50pm 122 2 G 3 76° 24% - - 37° 100.9° 72.9° - - -
6/26 11:40pm 125 2 G 4 76° 25% - - 37° 100.9° 72.9° - - -
6/26 11:30pm 188 1 G 4 75° 26% - - 38° 100.9° 72.9° - - -
6/26 11:20pm 143 1 G 2 75° 27% - - 39° 100.9° 72.9° - - -
6/26 11:10pm 111 2 G 5 75° 28% - - 40° 100.9° 72.9° - - -
6/26 11:00pm 114 2 G 5 75° 28% - - 40° 100.9° 72.9° - - -
6/26 10:50pm 132 2 G 4 76° 27% - - 40° 100.9° 72.9° - - -
6/26 10:40pm 152 1 G 3 77° 27% - - 40° 100.9° 72.9° - - -
6/26 10:30pm 149 1 G 2 77° 26% - - 39° 100.9° 72.9° - - -
6/26 10:20pm 156 1 G 3 77° 24% - - 38° 100.9° 72.9° - - -
6/26 10:10pm 138 1 G 3 79° 23% - - 38° 100.9° 72.9° - - -
6/26 10:00pm 258 1 G 3 80° 25% - - 41° 100.9° 72.9° - - -
6/26 9:50pm 275 2 G 3 81° 24% - - 41° 100.9° 72.9° - - -
6/26 9:40pm 276 2 G 3 81° 24% - - 40° 100.9° 72.9° - - -
6/26 9:30pm 250 2 G 4 81° 24% - - 41° 100.9° 72.9° - - -
6/26 9:20pm 274 3 G 7 82° 24% - - 41° 100.9° 72.9° - - -
6/26 9:10pm 254 1 G 2 82° 24% - - 41° 100.9° 72.9° - - -
6/26 9:00pm 255 1 G 2 82° 24% - - 42° 100.9° 72.9° - - -
6/26 8:50pm 257 1 G 2 83° 23% - - 41° 100.9° 72.9° - - -
6/26 8:40pm 276 1 G 2 83° 21% - - 39° 100.9° 72.9° - - -
6/26 8:30pm 328 1 G 2 84° 20% - - 39° 100.9° 72.9° - - -
6/26 8:20pm 309 2 G 3 84° 19% - - 38° 100.9° 72.9° - - -
6/26 8:10pm 292 2 G 4 85° 18% - - 36° 100.9° 72.9° - - -
6/26 8:00pm 289 1 G 3 85° 16% - - 34° 100.9° 72.9° - - -
6/26 7:50pm 289 2 G 5 86° 14% - - 32° 100.9° 72.9° - - -
6/26 7:40pm 297 2 G 5 87° 13% - - 31° 100.9° 72.9° - - -
6/26 7:30pm 271 2 G 5 89° 12% - - 29° 100.9° 72.9° - - -
6/26 7:20pm 285 3 G 5 90° 11% - - 27° 100.9° 72.9° - - -
6/26 7:10pm 280 4 G 8 90° 10% - - 26° 100.9° 72.9° - - -
6/26 7:00pm 291 4 G 9 91° 9% - - 26° 100.9° 72.9° - - -
6/26 6:50pm 285 3 G 6 92° 10% - - 27° 100.9° 72.9° - - -
6/26 6:40pm 292 4 G 7 92° 10% - - 27° 100.9° 72.9° - - -
6/26 6:30pm 289 3 G 6 92° 10% - - 27° 100.9° 72.9° - - -
6/26 6:20pm 285 5 G 11 93° 9% - - 26° 100.9° 72.9° - - -
6/26 6:10pm 272 5 G 11 93° 10% - - 28° 100.9° 72.9° - - -
6/26 6:00pm 307 6 G 10 93° 10% - - 28° 100.9° 72.9° - - -
6/26 5:50pm 290 6 G 11 93° 9% - - 27° 100.9° 72.9° - - -
6/26 5:40pm 276 7 G 12 94° 9% - - 26° 100.9° 72.9° - - -
6/26 5:30pm 266 6 G 10 94° 9% - - 27° 100.9° 72.9° - - -
6/26 5:20pm 255 6 G 11 95° 10% - - 29° 100.9° 72.9° - - -
6/26 5:10pm 285 6 G 11 95° 10% - - 29° 100.9° 72.9° - - -
6/26 5:00pm 286 6 G 9 96° 9% - - 29° 100.9° 72.9° - - -
6/26 4:50pm 288 7 G 13 95° 9% - - 28° 100.9° 72.9° - - -
6/26 4:40pm 290 6 G 12 95° 10% - - 30° 100.9° 72.9° - - -
6/26 4:30pm 276 7 G 12 95° 10% - - 30° 100.9° 72.9° - - -
6/26 4:20pm 279 6 G 11 96° 10% - - 31° 100.9° 72.9° - - -
6/26 4:10pm 293 6 G 12 96° 11% - - 33° 100.9° 72.9° - - -
6/26 4:00pm 286 6 G 12 97° 11% - - 33° 100.9° 72.9° - - -
6/26 3:50pm 286 7 G 12 96° 11% - - 33° 100.9° 72.9° - - -
6/26 3:40pm 277 8 G 14 96° 10% - - 30° 100.9° 72.9° - - -
6/26 3:30pm 256 7 G 12 96° 10% - - 30° 100.9° 72.9° - - -
6/26 3:20pm 260 7 G 15 97° 9% - - 30° 100.9° 72.9° - - -
6/26 3:10pm 253 8 G 14 97° 9% - - 29° 100.9° 72.9° - - -
6/26 3:00pm 277 5 G 13 98° 10% - - 33° 100.9° 72.9° - - -
6/26 2:50pm 275 6 G 12 98° 10% - - 31° 100.9° 72.9° - - -
6/26 2:40pm 267 6 G 11 98° 10% - - 31° 100.9° 72.9° - - -
6/26 2:30pm 292 7 G 12 98° 10% - - 32° 100.9° 72.9° - - -
6/26 2:20pm 262 8 G 14 97° 9% - - 30° 100.9° 72.9° - - -
6/26 2:10pm 261 8 G 15 98° 9% - - 30° 100.9° 72.9° - - -
6/26 2:00pm 284 7 G 12 98° 10% - - 32° 100.9° 72.9° - - -
6/26 1:50pm 299 7 G 14 98° 11% - - 34° 100.9° 72.9° - - -
6/26 1:40pm 290 7 G 13 97° 12% - - 37° 100.9° 72.9° - - -
6/26 1:30pm 299 7 G 15 97° 13% - - 37° 100.9° 72.9° - - -
6/26 1:20pm 300 8 G 14 97° 12% - - 36° 100.9° 72.9° - - -
6/26 1:10pm 299 7 G 13 98° 12% - - 36° 100.9° 72.9° - - -
6/26 1:00pm 279 6 G 11 98° 12% - - 37° 100.9° 72.9° - - -
6/26 12:50pm 304 7 G 11 98° 12% - - 38° 100.9° 72.9° - - -
6/26 12:40pm 292 6 G 11 98° 12% - - 36° 100.9° 72.9° - - -
6/26 12:30pm 262 6 G 12 98° 10% - - 32° 100.9° 72.9° - - -
6/26 12:20pm 267 7 G 14 98° 9% - - 29° 100.9° 72.9° - - -
6/26 12:10pm 261 8 G 13 98° 8% - - 27° 100.9° 72.9° - - -
6/26 12:00pm 265 6 G 11 98° 9% - - 30° 100.9° 72.9° - - -
6/26 11:50am 259 7 G 13 99° 9% - - 29° 100.9° 72.9° - - -
6/26 11:40am 265 7 G 13 98° 9% - - 30° 100.9° 72.9° - - -
6/26 11:30am 269 7 G 12 99° 9% - - 29° 100.9° 72.9° - - -
6/26 11:20am 264 6 G 10 99° 8% - - 28° 100.9° 72.9° - - -
6/26 11:10am 278 6 G 10 99° 8% - - 27° 100.9° 72.9° - - -
6/26 11:00am 283 4 G 9 100° 7% - - 26° 100.7° 72.9° - - -
6/26 10:50am 295 5 G 9 99° 8% - - 27° 100° 72.9° - - -
6/26 10:40am 248 3 G 8 99° 10% - - 32° 100° 72.9° - - -
6/26 10:30am 256 4 G 8 98° 10% - - 31° 98.4° 72.9° - - -
6/26 10:20am 295 4 G 7 98° 9% - - 30° 98.2° 72.9° - - -
6/26 10:10am 309 4 G 8 97° 10% - - 32° 97.8° 72.9° - - -
6/26 10:00am 288 4 G 8 97° 11% - - 34° 97.8° 72.9° - - -
6/26 9:50am 287 3 G 7 97° 12% - - 35° 97.8° 72.9° - - -
6/26 9:40am 247 2 G 5 97° 12% - - 36° 97.8° 72.9° - - -
6/26 9:30am 249 2 G 5 95° 13% - - 36° 96.2° 72.9° - - -
6/26 9:20am 303 2 G 4 94° 13% - - 36° 95° 72.9° - - -
6/26 9:10am 242 3 G 6 94° 13% - - 36° 94° 72.9° - - -
6/26 9:00am 259 2 G 4 93° 13% - - 35° 93.6° 72.9° - - -
6/26 8:50am 204 2 G 4 93° 13% - - 35° 93.5° 72.9° - - -
6/26 8:40am 217 2 G 3 92° 15% - - 37° 93° 72.9° - - -
6/26 8:30am 138 2 G 4 91° 16% - - 38° 91.8° 72.9° - - -
6/26 8:20am 124 2 G 4 89° 17% - - 39° 90.3° 72.9° - - -
6/26 8:10am 142 2 G 4 88° 20% - - 42° 88.4° 72.9° - - -
6/26 8:00am 147 2 G 4 87° 21% - - 42° 87.1° 72.9° - - -
6/26 7:50am 126 1 G 3 85° 22% - - 42° 86.7° 72.9° - - -
6/26 7:40am 139 2 G 3 83° 22% - - 41° 84° 72.9° - - -
6/26 7:30am 133 2 G 4 82° 23% - - 40° 82.3° 72.9° - - -
6/26 7:20am 131 1 G 3 81° 23% - - 40° 81.6° 72.9° - - -
6/26 7:10am 144 2 G 3 79° 24% - - 39° 79.7° 72.9° - - -
6/26 7:00am 129 2 G 4 78° 24% - - 38° 78.9° 72.9° - - -
6/26 6:50am 135 1 G 4 77° 24% - - 38° 78.9° 72.9° - - -
6/26 6:40am 154 0 G 2 76° 25% - - 38° 78.9° 72.9° - - -
6/26 6:30am 147 0 G 2 75° 26% - - 38° 78.9° 72.9° - - -
6/26 6:20am 138 1 G 4 75° 26% - - 38° 78.9° 72.9° - - -
6/26 6:10am 114 2 G 3 76° 25% - - 37° 78.9° 72.9° - - -
6/26 6:00am 76 1 G 3 75° 26% - - 38° 78.9° 72.9° - - -